Weather History for Aberdeen / Amory, MS

Change the Weather History Date:

Friday, March 8, 2013

  Actual Average (KCBM) Record (KCBM)
Temperature  
Mean Temperature 50 °F -  
Max Temperature 71 °F 60 °F 77 °F (2002)
Min Temperature 30 °F 40 °F 29 °F (2008)
Degree Days  
Heating Degree Days 14    
Moisture  
Dew Point 37 °F    
Average Humidity 68    
Maximum Humidity 93    
Minimum Humidity 52    
Precipitation  
Precipitation 0.00 in - - ()
Sea Level Pressure  
Sea Level Pressure 30.30 in    
Wind  
Wind Speed 2 mph (North)    
Max Wind Speed 7 mph    
Max Gust Speed -    
Visibility 7 miles    
Events      
Averages and records for this station are not official NWS values.
T = Trace of Precipitation, MM = Missing Value Source: NWS Daily Summary

Daily Weather History Graph

Daily Weather History Graph

Search for Another Location

Airport:

Trip Planner

Search our weather history database for the weather conditions in past years. The results will help you decide how hot, cold, wet, or windy it might be!

Date:

Astronomy

Mar. 08, 2013 Rise Set
Actual Time 6:13 AM CST 5:56 PM CST
Civil Twilight 5:48 AM CST 6:21 PM CST
Nautical Twilight 5:19 AM CST 6:50 PM CST
Astronomical Twilight 4:50 AM CST 7:19 PM CST
Moon 3:49 AM CST (3/8) 2:57 PM CST (3/8)
Length of Visible Light 12h 32m
Length of Day
11h 43m
Waning Crescent, 11% of the Moon is Illuminated
Mar 8
Waning Crescent
Mar 11
New
Mar 19
First Quarter
Mar 27
Full
Apr 2
Last Quarter

Hourly Weather History & Observations

Time (CST) Temp. Windchill Dew Point Humidity Pressure Visibility Wind Dir Wind Speed Gust Speed Precip Events Conditions
12:15 AM 32.0 °F - 28.4 °F 87% 30.30 in 5.0 mi Calm Calm - N/A   Clear
12:35 AM 32.0 °F - 30.2 °F 93% 30.31 in 4.0 mi Calm Calm - N/A   Clear
1:15 AM 32.0 °F - 28.4 °F 87% 30.32 in 5.0 mi Calm Calm - N/A   Clear
1:35 AM 32.0 °F 27.5 °F 28.4 °F 87% 30.32 in 5.0 mi NNE 4.6 mph - N/A   Clear
2:15 AM 32.0 °F 28.7 °F 26.6 °F 80% 30.31 in 5.0 mi NNE 3.5 mph - N/A   Haze
2:35 AM 32.0 °F 28.7 °F 26.6 °F 80% 30.31 in 7.0 mi NNW 3.5 mph - N/A   Clear
3:15 AM 32.0 °F - 26.6 °F 80% 30.31 in 5.0 mi Calm Calm - N/A   Haze
3:35 AM 30.2 °F 26.7 °F 26.6 °F 86% 30.32 in 5.0 mi North 3.5 mph - N/A   Clear
3:55 AM 30.2 °F 25.4 °F 26.6 °F 86% 30.32 in 5.0 mi North 4.6 mph - N/A   Haze
4:15 AM 30.2 °F - 26.6 °F 86% 30.32 in 5.0 mi Calm Calm - N/A   Haze
4:35 AM 30.2 °F 26.7 °F 26.6 °F 86% 30.32 in 5.0 mi North 3.5 mph - N/A   Haze
4:55 AM 30.2 °F 26.7 °F 26.6 °F 86% 30.32 in 5.0 mi North 3.5 mph - N/A   Clear
5:15 AM 30.2 °F - 24.8 °F 80% 30.33 in 5.0 mi Calm Calm - N/A   Haze
5:35 AM 30.2 °F - 26.6 °F 86% 30.33 in 5.0 mi Calm Calm - N/A   Haze
5:55 AM 30.2 °F - 26.6 °F 86% 30.34 in 5.0 mi Calm Calm - N/A   Haze
6:15 AM 30.2 °F 25.4 °F 26.6 °F 86% 30.35 in 5.0 mi NNE 4.6 mph - N/A   Haze
6:35 AM 30.2 °F - 26.6 °F 86% 30.36 in 4.0 mi Calm Calm - N/A   Clear
6:55 AM 30.2 °F - 26.6 °F 86% 30.36 in 3.0 mi Calm Calm - N/A   Clear
7:15 AM 32.0 °F - 28.4 °F 87% 30.37 in 3.0 mi Calm Calm - N/A   Haze
7:35 AM 33.8 °F 30.8 °F 30.2 °F 87% 30.37 in 3.0 mi NE 3.5 mph - N/A   Haze
8:15 AM 37.4 °F - 33.8 °F 87% 30.39 in 5.0 mi Calm Calm - N/A   Haze
8:35 AM 39.2 °F 37.0 °F 33.8 °F 81% 30.41 in 6.0 mi North 3.5 mph - N/A   Haze
8:55 AM 42.8 °F - 33.8 °F 70% 30.42 in 6.0 mi Calm Calm - N/A   Haze
9:15 AM 44.6 °F - 35.6 °F 71% 30.40 in 7.0 mi Calm Calm - N/A   Clear
9:35 AM 46.4 °F 42.9 °F 35.6 °F 66% 30.38 in 5.0 mi NNE 6.9 mph - N/A   Haze
9:55 AM 48.2 °F - 35.6 °F 62% 30.36 in 7.0 mi Calm Calm - N/A   Clear
10:15 AM 51.8 °F - 37.4 °F 58% 30.36 in 8.0 mi NNW 3.5 mph - N/A   Clear
10:35 AM 53.6 °F - 37.4 °F 54% 30.36 in 8.0 mi North 3.5 mph - N/A   Clear
10:55 AM 57.2 °F - 41.0 °F 55% 30.36 in 8.0 mi North 4.6 mph - N/A   Clear
11:35 AM 60.8 °F - 44.6 °F 55% 30.35 in 9.0 mi North 4.6 mph - N/A   Clear
11:55 AM 62.6 °F - 44.6 °F 52% 30.34 in 10.0 mi North 5.8 mph - N/A   Clear
12:15 PM 62.6 °F - 46.4 °F 55% 30.33 in 10.0 mi NW 4.6 mph - N/A   Clear
12:35 PM 64.4 °F - 48.2 °F 56% 30.31 in 9.0 mi North 3.5 mph - N/A   Clear
12:55 PM 64.4 °F - 48.2 °F 56% 30.30 in 10.0 mi North 3.5 mph - N/A   Clear
1:15 PM 66.2 °F - 50.0 °F 56% 30.29 in 9.0 mi NNE 5.8 mph - N/A   Clear
1:35 PM 66.2 °F - 50.0 °F 56% 30.28 in 9.0 mi Calm Calm - N/A   Clear
1:55 PM 68.0 °F - 51.8 °F 56% 30.27 in 9.0 mi Calm Calm - N/A   Clear
2:15 PM 69.8 °F - 53.6 °F 56% 30.26 in 9.0 mi NNW 4.6 mph - N/A   Clear
2:35 PM 69.8 °F - 53.6 °F 56% 30.26 in 8.0 mi NNE 4.6 mph - N/A   Clear
2:55 PM 69.8 °F - 51.8 °F 53% 30.25 in 10.0 mi North 5.8 mph - N/A   Clear
3:15 PM 69.8 °F - 51.8 °F 53% 30.25 in 10.0 mi North 3.5 mph - N/A   Clear
3:35 PM 69.8 °F - 53.6 °F 56% 30.25 in 9.0 mi NW 3.5 mph - N/A   Clear
3:55 PM 71.6 °F - 53.6 °F 53% 30.25 in 9.0 mi NNE 3.5 mph - N/A   Clear
4:15 PM 69.8 °F - 53.6 °F 56% 30.24 in 10.0 mi Calm Calm - N/A   Clear
4:35 PM 69.8 °F - 53.6 °F 56% 30.23 in 8.0 mi Calm Calm - N/A   Clear
4:55 PM 69.8 °F - 51.8 °F 53% 30.24 in 10.0 mi Calm Calm - N/A   Clear
5:15 PM 66.2 °F - 48.2 °F 52% 30.24 in 10.0 mi Calm Calm - N/A   Clear
5:35 PM 62.6 °F - 46.4 °F 55% 30.24 in 10.0 mi Calm Calm - N/A   Clear
5:55 PM 59.0 °F - 42.8 °F 55% 30.25 in 5.0 mi WNW 3.5 mph - N/A   Haze
6:15 PM 53.6 °F - 37.4 °F 54% 30.24 in 8.0 mi Calm Calm - N/A   Clear
6:35 PM 53.6 °F - 37.4 °F 54% 30.24 in 10.0 mi Calm Calm - N/A   Clear
7:15 PM 50.0 °F - 35.6 °F 58% 30.24 in 10.0 mi Calm Calm - N/A   Clear
7:35 PM 48.2 °F - 35.6 °F 62% 30.23 in 10.0 mi Calm Calm - N/A   Clear
8:15 PM 46.4 °F - 35.6 °F 66% 30.23 in 10.0 mi Calm Calm - N/A   Clear
8:35 PM 46.4 °F - 33.8 °F 62% 30.23 in 10.0 mi Calm Calm - N/A   Clear
9:15 PM 46.4 °F - 35.6 °F 66% 30.24 in 10.0 mi Calm Calm - N/A   Clear
9:35 PM 46.4 °F - 35.6 °F 66% 30.24 in 9.0 mi Calm Calm - N/A   Clear
9:55 PM 46.4 °F - 37.4 °F 71% 30.24 in 9.0 mi Calm Calm - N/A   Clear
10:15 PM 44.6 °F - 35.6 °F 71% 30.24 in 10.0 mi Calm Calm - N/A   Clear
10:35 PM 44.6 °F - 30.2 °F 57% 30.25 in 9.0 mi Calm Calm - N/A   Clear
11:15 PM 42.8 °F - 32.0 °F 66% 30.24 in 10.0 mi Calm Calm - N/A   Clear
11:35 PM 39.2 °F - 30.2 °F 70% 30.23 in 8.0 mi Calm Calm - N/A   Clear
11:55 PM 39.2 °F - 30.2 °F 70% 30.22 in 9.0 mi Calm Calm - N/A   Clear